W4KAB Weather Reports


time (UTC)temp
F
wind
direction
speed
knots
gust
knots
rain 1hr
in
rain 24hr
in
rain mn
in
humidity
%
barometer
mb
20260505160440 74 291 0.0 0.0 0.00 0.00 0.00 45 1017.9
20260505152916 73 242 0.0 0.9 0.00 0.00 0.00 47 1017.6
20260505152408 73 262 1.7 1.7 0.00 0.00 0.00 45 1017.8
20260505151908 73 279 0.0 0.0 0.00 0.00 0.00 45 1017.7
20260505151404 72 289 0.0 0.0 0.00 0.00 0.00 48 1017.7
20260505150901 71 273 0.9 1.7 0.00 0.00 0.00 45 1017.9
20260505150358 71 280 1.7 1.7 0.00 0.00 0.00 48 1017.7
20260505140323 63 280 0.0 0.0 0.00 0.00 0.00 65 1017.7
20260505130246 57 258 0.0 0.0 0.00 0.00 0.00 75 1017.9
20260505124737 55 298 0.0 0.0 0.00 0.00 0.00 82 1017.7
20260505124234 55 295 0.0 0.0 0.00 0.00 0.00 82 1017.6
20260505123729 54 297 0.0 0.0 0.00 0.00 0.00 83 1017.7
20260505123226 54 284 0.0 0.0 0.00 0.00 0.00 84 1017.6
20260505122722 53 280 0.0 0.0 0.00 0.00 0.00 84 1017.6
20260505122220 53 280 0.0 0.0 0.00 0.00 0.00 85 1017.6
20260505121716 52 279 0.0 0.0 0.00 0.00 0.00 86 1017.7
20260505121213 51 280 0.0 0.0 0.00 0.00 0.00 86 1017.6
20260505120710 51 271 0.0 0.0 0.00 0.00 0.00 86 1017.5
20260505120205 51 261 0.0 0.0 0.00 0.00 0.00 87 1017.3
20260505115659 50 262 0.0 0.0 0.00 0.00 0.00 87 1017.2
20260505115157 50 258 0.0 0.0 0.00 0.00 0.00 87 1017.4
20260505114654 50 261 0.0 0.0 0.00 0.00 0.00 87 1017.2
20260505114150 50 295 0.0 0.0 0.00 0.00 0.00 88 1017.4
20260505113647 49 297 0.0 0.0 0.00 0.00 0.00 88 1017.5
20260505113143 49 308 0.0 0.0 0.00 0.00 0.00 89 1017.3
20260505112640 49 312 0.0 0.0 0.00 0.00 0.00 89 1017.3
20260505112138 49 294 0.0 0.0 0.00 0.00 0.00 88 1017.3
20260505111637 48 297 0.0 0.0 0.00 0.00 0.00 88 1017.3
20260505111133 49 294 0.0 0.0 0.00 0.00 0.00 87 1017.5
20260505110630 49 294 0.0 0.0 0.00 0.00 0.00 87 1017.2
20260505110127 49 321 0.0 0.0 0.00 0.00 0.00 86 1017.1
20260505102103 50 291 0.0 0.0 0.00 0.00 0.00 83 1016.9
20260505101601 50 66 0.0 0.0 0.00 0.00 0.00 83 1016.9
20260505101057 51 25 0.0 0.0 0.00 0.00 0.00 82 1016.8
20260505100554 51 31 0.0 0.0 0.00 0.00 0.00 81 1016.9
20260505100051 51 274 0.0 0.0 0.00 0.00 0.00 82 1016.7
20260505095547 51 269 0.0 0.0 0.00 0.00 0.00 82 1016.8
20260505095043 51 300 0.0 0.0 0.00 0.00 0.00 81 1016.4
20260505094540 52 291 0.0 0.0 0.00 0.00 0.00 80 1016.6
20260505094036 53 314 0.0 0.0 0.00 0.00 0.00 76 1016.4
20260505093533 53 274 0.0 0.0 0.00 0.00 0.00 75 1016.6
20260505093030 53 265 0.0 0.0 0.00 0.00 0.00 76 1016.2
20260505092527 53 266 0.0 0.0 0.00 0.00 0.00 76 1016.7
20260505092026 53 271 0.0 0.0 0.00 0.00 0.00 76 1016.4
20260505091522 53 265 0.0 0.0 0.00 0.00 0.00 76 1016.6
20260505091021 53 260 0.0 0.0 0.00 0.00 0.00 75 1016.7
20260505090518 53 261 0.0 0.0 0.00 0.00 0.00 75 1016.6
20260505090016 53 274 0.0 0.0 0.00 0.00 0.00 76 1016.6
20260505085514 53 272 0.0 0.0 0.00 0.00 0.00 76 1016.6
20260505085012 52 271 0.0 0.0 0.00 0.00 0.00 77 1016.3
20260505084510 52 274 0.0 0.0 0.00 0.00 0.00 77 1016.6
20260505084007 52 284 0.0 0.0 0.00 0.00 0.00 78 1016.1
20260505083504 52 273 0.0 0.0 0.00 0.00 0.00 78 1016.3
20260505083000 52 287 0.0 0.0 0.00 0.00 0.00 78 1016.2
20260505082456 53 286 0.0 0.0 0.00 0.00 0.00 76 1016.1
20260505081953 54 309 0.0 0.0 0.00 0.00 0.00 76 1016.3
20260505081450 54 345 0.0 0.0 0.00 0.00 0.00 74 1015.9
20260505080947 54 259 0.0 0.0 0.00 0.00 0.00 75 1016.0
20260505080443 54 250 0.0 0.0 0.00 0.00 0.00 73 1016.2
20260505075938 53 264 0.0 0.0 0.00 0.00 0.00 75 1016.2
20260505075435 53 279 0.0 0.0 0.00 0.00 0.00 75 1015.9
20260505074933 53 322 0.0 0.0 0.00 0.00 0.00 75 1016.1
20260505074430 53 65 0.0 0.0 0.00 0.00 0.00 74 1016.0
20260505073927 54 81 0.0 0.0 0.00 0.00 0.00 74 1015.7
20260505073425 54 70 0.0 0.0 0.00 0.00 0.00 73 1015.6
20260505072921 54 80 0.0 0.0 0.00 0.00 0.00 72 1015.7
20260505072418 55 88 0.0 0.0 0.00 0.00 0.00 72 1015.4
20260505071914 55 281 0.0 0.0 0.00 0.00 0.00 71 1015.7
20260505071410 55 315 0.0 0.0 0.00 0.00 0.00 71 1015.7
20260505070909 55 317 0.0 0.0 0.00 0.00 0.00 70 1015.8
20260505070404 55 277 0.0 0.0 0.00 0.00 0.00 71 1015.7
20260505065900 55 277 0.0 0.0 0.00 0.00 0.00 71 1015.5
20260505065357 55 277 0.0 0.0 0.00 0.00 0.00 70 1015.5
20260505064854 56 321 0.0 0.0 0.00 0.00 0.00 70 1015.7
20260505064351 56 36 0.0 0.0 0.00 0.00 0.00 67 1015.6
20260505063850 56 27 0.0 0.0 0.00 0.00 0.00 67 1015.7
20260505063345 56 224 0.0 0.0 0.00 0.00 0.00 68 1015.6
20260505062842 56 73 0.0 0.0 0.00 0.00 0.00 68 1015.8
20260505062339 57 141 0.0 0.0 0.00 0.00 0.00 67 1015.6
20260505061836 57 79 0.0 0.0 0.00 0.00 0.00 66 1015.4
20260505061334 57 251 0.0 0.0 0.00 0.00 0.00 66 1015.7
20260505060831 57 94 0.0 0.0 0.00 0.00 0.00 65 1015.6
20260505060328 57 328 0.0 0.0 0.00 0.00 0.00 64 1015.7
20260505055824 58 82 0.0 0.0 0.00 0.00 0.00 64 1015.7
20260505055320 58 160 0.0 0.0 0.00 0.00 0.00 65 1015.7
20260505054818 58 74 0.0 0.0 0.00 0.00 0.00 64 1015.6
20260505054315 58 54 0.0 0.0 0.00 0.00 0.00 64 1015.7
20260505053813 59 65 0.0 0.0 0.00 0.00 0.00 62 1015.8
20260505053310 59 315 0.0 0.0 0.00 0.00 0.00 62 1015.6
20260505052806 59 278 0.0 0.0 0.00 0.00 0.00 63 1015.7
20260505052304 60 246 0.0 0.0 0.00 0.00 0.00 62 1015.7
20260505051800 60 317 0.0 0.0 0.00 0.00 0.00 61 1015.3
20260505051258 60 57 0.0 0.0 0.00 0.00 0.00 60 1015.7
20260505050756 61 61 0.0 0.0 0.00 0.00 0.00 58 1015.6
20260505050254 62 301 0.0 0.0 0.00 0.00 0.00 59 1015.4
20260505041729 67 299 0.0 0.0 0.00 0.00 0.00 45 1015.4
20260505041226 67 260 0.0 0.0 0.00 0.00 0.00 45 1015.6
20260505040723 68 308 0.0 0.0 0.00 0.00 0.00 45 1015.6
20260505040220 67 250 0.0 0.0 0.00 0.00 0.00 45 1015.6
20260505035718 68 260 0.0 0.0 0.00 0.00 0.00 45 1015.5
20260505035213 68 279 0.9 1.7 0.00 0.00 0.00 45 1015.7
20260505034710 68 264 0.0 0.0 0.00 0.00 0.00 45 1015.7
20260505034207 67 281 0.0 0.0 0.00 0.00 0.00 47 1015.6
20260505033703 67 248 0.0 0.0 0.00 0.00 0.00 46 1015.5
20260505033202 67 248 0.0 0.0 0.00 0.00 0.00 45 1015.7
20260505032659 67 262 0.0 0.0 0.00 0.00 0.00 46 1015.7
20260505032155 67 236 0.0 0.0 0.00 0.00 0.00 47 1016.1
20260505031653 68 299 0.0 0.9 0.00 0.00 0.00 45 1015.9
20260505031149 68 253 0.0 0.0 0.00 0.00 0.00 45 1015.9
20260505030646 68 248 0.0 0.0 0.00 0.00 0.00 45 1015.8
20260505030141 68 264 0.0 0.0 0.00 0.00 0.00 45 1016.1
20260505025638 68 257 0.0 0.0 0.00 0.00 0.00 45 1016.0
20260505025136 67 244 0.0 0.0 0.00 0.00 0.00 46 1016.0
20260505024634 67 242 0.0 0.0 0.00 0.00 0.00 46 1016.2
20260505024131 67 278 0.0 0.0 0.00 0.00 0.00 46 1016.1
20260505023628 67 246 0.0 0.0 0.00 0.00 0.00 46 1016.0
20260505023125 67 266 0.0 0.0 0.00 0.00 0.00 45 1016.0
20260505022623 67 214 0.9 0.9 0.00 0.00 0.00 44 1015.8
20260505022120 67 248 0.0 0.9 0.00 0.00 0.00 44 1015.9
20260505021616 67 252 0.0 0.0 0.00 0.00 0.00 46 1015.8
20260505021113 67 264 0.0 0.0 0.00 0.00 0.00 46 1015.8
20260505020608 67 256 0.0 0.0 0.00 0.00 0.00 46 1016.0
20260505020105 66 247 0.0 0.0 0.00 0.00 0.00 46 1015.8
20260505015602 66 268 0.0 0.0 0.00 0.00 0.00 46 1016.0
20260505015059 66 258 0.0 0.0 0.00 0.00 0.00 48 1016.0
20260505014555 66 301 0.0 0.0 0.00 0.00 0.00 47 1015.8
20260505014052 66 84 0.0 0.0 0.00 0.00 0.00 49 1015.7
20260505013550 64 255 0.0 0.0 0.00 0.00 0.00 51 1015.7
20260505013047 64 31 0.0 0.0 0.00 0.00 0.00 51 1015.6
20260505012545 64 234 0.0 0.0 0.00 0.00 0.00 52 1015.6
20260505012042 65 215 0.0 0.0 0.00 0.00 0.00 50 1015.6
20260505011537 65 152 0.0 0.0 0.00 0.00 0.00 51 1015.4
20260505011035 65 151 0.0 0.0 0.00 0.00 0.00 50 1015.6
20260505010530 66 138 0.0 0.0 0.00 0.00 0.00 50 1015.5
20260505010027 66 248 0.0 0.0 0.00 0.00 0.00 49 1015.5
20260505005523 67 229 0.0 0.0 0.00 0.00 0.00 48 1015.5
20260505005021 69 249 0.0 0.0 0.00 0.00 0.00 46 1015.4
20260505004517 69 252 0.0 0.0 0.00 0.00 0.00 43 1015.5
20260505004014 69 257 0.0 0.0 0.00 0.00 0.00 42 1015.4
20260505003511 69 278 0.0 0.0 0.00 0.00 0.00 43 1015.3
20260505003009 69 253 0.0 0.0 0.00 0.00 0.00 43 1015.2
20260505002504 69 264 0.0 0.9 0.00 0.00 0.00 44 1015.3
20260505002003 69 268 0.0 0.0 0.00 0.00 0.00 43 1015.0
20260505001500 70 265 0.0 0.0 0.00 0.00 0.00 46 1015.2
20260505000956 70 265 0.0 0.0 0.00 0.00 0.00 47 1015.1
20260505000454 70 262 0.0 0.0 0.00 0.00 0.00 45 1015.1
20260504235951 71 292 0.0 0.0 0.00 0.00 0.00 45 1015.0
20260504235448 71 291 0.0 0.0 0.00 0.00 0.00 45 1014.9
20260504234944 73 297 0.0 0.0 0.00 0.00 0.00 40 1015.0
20260504234442 73 259 0.0 0.0 0.00 0.00 0.00 41 1014.7
20260504233938 73 256 0.0 0.0 0.00 0.00 0.00 40 1014.8
20260504233434 73 255 0.0 0.0 0.00 0.00 0.00 39 1014.8
20260504232931 74 274 0.0 0.0 0.00 0.00 0.00 41 1014.8
20260504232428 74 261 0.0 0.0 0.00 0.00 0.00 38 1014.8
20260504231925 74 327 0.0 0.0 0.00 0.00 0.00 38 1014.6
20260504231422 74 1 0.0 0.0 0.00 0.00 0.00 38 1014.6
20260504230918 75 249 0.9 0.9 0.00 0.00 0.00 38 1014.4
20260504230415 75 253 0.9 0.9 0.00 0.00 0.00 38 1014.6
20260504225914 75 263 0.0 0.9 0.00 0.00 0.00 39 1014.6
20260504225410 75 354 0.0 0.9 0.00 0.00 0.00 37 1014.4
20260504224908 75 249 1.7 2.6 0.00 0.00 0.00 38 1014.4
20260504224404 75 277 0.0 0.0 0.00 0.00 0.00 37 1014.3
20260504223902 76 262 0.9 0.9 0.00 0.00 0.00 37 1014.6
20260504223356 76 255 0.9 0.9 0.00 0.00 0.00 38 1014.5
20260504222853 76 242 0.0 0.0 0.00 0.00 0.00 38 1014.6
20260504222350 76 314 0.0 0.0 0.00 0.00 0.00 38 1014.6
20260504221849 76 270 0.0 0.0 0.00 0.00 0.00 38 1014.5
20260504221345 77 14 0.9 0.9 0.00 0.00 0.00 38 1014.5
20260504220842 77 262 0.0 0.0 0.00 0.00 0.00 38 1014.5
20260504220339 77 270 0.0 0.0 0.00 0.00 0.00 37 1014.5
20260504215836 78 275 0.0 0.0 0.00 0.00 0.00 38 1014.6
20260504215332 78 297 0.0 0.0 0.00 0.00 0.00 37 1014.6
20260504214828 78 239 0.9 1.7 0.00 0.00 0.00 39 1014.7
20260504214326 77 260 0.0 0.0 0.00 0.00 0.00 39 1014.4
20260504213822 77 281 0.0 0.9 0.00 0.00 0.00 38 1014.6
20260504213318 77 262 0.0 0.0 0.00 0.00 0.00 37 1014.9
20260504212816 78 244 1.7 4.3 0.00 0.00 0.00 37 1014.5
20260504212311 77 241 0.0 0.0 0.00 0.00 0.00 39 1014.6
20260504211810 77 260 0.9 0.9 0.00 0.00 0.00 38 1014.7
20260504211305 79 260 0.9 1.7 0.00 0.00 0.00 37 1014.8
20260504210803 78 256 0.0 0.0 0.00 0.00 0.00 39 1014.5
20260504210300 77 58 0.0 0.0 0.00 0.00 0.00 38 1014.5
20260504205757 78 254 0.0 0.0 0.00 0.00 0.00 38 1014.5
20260504205255 78 267 0.0 0.0 0.00 0.00 0.00 37 1014.9
20260504204753 78 250 0.9 0.9 0.00 0.00 0.00 37 1014.8
20260504204251 78 299 0.0 0.0 0.00 0.00 0.00 36 1014.7
20260504203750 79 279 0.0 0.0 0.00 0.00 0.00 35 1014.5
20260504203246 80 250 1.7 1.7 0.00 0.00 0.00 36 1014.7
20260504202741 80 296 0.0 1.7 0.00 0.00 0.00 36 1014.9
20260504202239 80 255 0.0 0.9 0.00 0.00 0.00 35 1014.8
20260504201736 80 304 0.0 0.0 0.00 0.00 0.00 36 1014.9
20260504201233 80 302 0.0 0.0 0.00 0.00 0.00 38 1015.0
20260504200731 80 79 2.6 2.6 0.00 0.00 0.00 35 1015.1
20260504200226 80 266 0.0 0.0 0.00 0.00 0.00 36 1014.9
20260504195723 79 247 0.0 0.0 0.00 0.00 0.00 38 1015.3
20260504195219 80 296 0.0 0.0 0.00 0.00 0.00 36 1015.4
20260504194716 80 246 0.9 1.7 0.00 0.00 0.00 36 1015.5
20260504194212 80 239 0.9 1.7 0.00 0.00 0.00 36 1015.1
20260504193709 79 260 0.9 1.7 0.00 0.00 0.00 38 1015.5
20260504193206 79 289 0.0 0.0 0.00 0.00 0.00 37 1015.7
20260504192704 79 355 0.0 0.0 0.00 0.00 0.00 36 1015.8
20260504192202 79 270 0.9 0.9 0.00 0.00 0.00 38 1015.8
20260504191701 80 259 0.9 1.7 0.00 0.00 0.00 36 1015.8
20260504191156 79 256 0.9 1.7 0.00 0.00 0.00 37 1015.9
20260504190652 78 204 0.0 0.0 0.00 0.00 0.00 36 1015.9
20260504190149 78 37 0.9 0.9 0.00 0.00 0.00 38 1016.0
20260504185645 79 277 1.7 2.6 0.00 0.00 0.00 41 1016.0
20260504185142 79 271 0.0 0.0 0.00 0.00 0.00 40 1016.3
20260504184638 78 48 0.9 2.6 0.00 0.00 0.00 39 1016.0
20260504184133 79 242 0.9 1.7 0.00 0.00 0.00 41 1016.0
20260504183631 78 217 0.0 0.0 0.00 0.00 0.00 36 1016.1
20260504183128 78 242 0.0 0.9 0.00 0.00 0.00 37 1016.3
20260504182626 77 246 0.9 1.7 0.00 0.00 0.00 39 1016.7
20260504182123 77 224 0.9 0.9 0.00 0.00 0.00 39 1016.3
20260504181620 77 275 0.0 0.0 0.00 0.00 0.00 39 1016.6
20260504181118 78 306 0.9 0.9 0.00 0.00 0.00 38 1016.7
20260504180617 77 258 0.0 0.0 0.00 0.00 0.00 40 1016.8
20260504180115 76 281 0.0 0.0 0.00 0.00 0.00 40 1016.9
20260504175612 75 271 0.0 0.0 0.00 0.00 0.00 41 1016.8
20260504175109 76 223 0.0 0.0 0.00 0.00 0.00 40 1016.8
20260504174607 76 260 0.0 0.0 0.00 0.00 0.00 41 1016.9
20260504174103 74 297 0.0 0.0 0.00 0.00 0.00 41 1017.0
20260504173600 75 237 0.0 0.0 0.00 0.00 0.00 42 1017.2
20260504173058 75 238 0.0 0.9 0.00 0.00 0.00 42 1017.1
20260504172554 76 4 0.9 0.9 0.00 0.00 0.00 42 1017.2
20260504172050 76 231 0.0 0.0 0.00 0.00 0.00 42 1016.9
20260504171547 75 335 0.9 1.7 0.00 0.00 0.00 41 1016.9
20260504171044 75 270 0.0 0.0 0.00 0.00 0.00 41 1016.9
20260504170540 74 265 0.0 0.0 0.00 0.00 0.00 43 1017.3